| time (UTC) | temp C | wind direction | speed KPH | gust KPH | rain 1hr cm | rain 24hr cm | rain mn cm | humidity % | barometer mb |
| 20260508122258 | 11 | 13 | 4.8 | 6.4 | 0.00 | 0.00 | 0.00 | 81 | 1001.8 |
| 20260508121755 | 10 | 43 | 6.4 | 8.0 | 0.00 | 0.00 | 0.00 | 79 | 1001.7 |
| 20260508121254 | 11 | 27 | 8.0 | 8.0 | 0.00 | 0.00 | 0.00 | 79 | 1001.7 |
| 20260508120751 | 10 | 49 | 6.4 | 8.0 | 0.00 | 0.00 | 0.00 | 80 | 1001.8 |
| 20260508120249 | 10 | 59 | 4.8 | 8.0 | 0.00 | 0.00 | 0.00 | 79 | 1001.9 |
| 20260508115746 | 10 | 55 | 4.8 | 6.4 | 0.00 | 0.00 | 0.00 | 79 | 1001.8 |
| 20260508115243 | 10 | 66 | 1.6 | 4.8 | 0.00 | 0.00 | 0.00 | 78 | 1002.1 |
| 20260508114739 | 10 | 187 | 3.2 | 4.8 | 0.00 | 0.00 | 0.00 | 77 | 1002.1 |
| 20260508114236 | 10 | 71 | 0.0 | 6.4 | 0.00 | 0.00 | 0.00 | 80 | 1002.0 |
| 20260508113733 | 10 | 307 | 3.2 | 4.8 | 0.00 | 0.00 | 0.00 | 80 | 1001.9 |
| 20260508113232 | 10 | 245 | 3.2 | 9.7 | 0.00 | 0.00 | 0.00 | 80 | 1002.3 |
| 20260508112727 | 10 | 300 | 3.2 | 4.8 | 0.00 | 0.00 | 0.00 | 79 | 1001.8 |
| 20260508112224 | 10 | 175 | 3.2 | 3.2 | 0.00 | 0.00 | 0.00 | 80 | 1001.9 |
| 20260508111721 | 10 | 246 | 0.0 | 3.2 | 0.00 | 0.00 | 0.00 | 80 | 1002.1 |
| 20260508111219 | 9 | 215 | 1.6 | 4.8 | 0.00 | 0.00 | 0.00 | 82 | 1002.1 |
| 20260508110716 | 9 | 175 | 1.6 | 4.8 | 0.00 | 0.00 | 0.00 | 82 | 1002.0 |
| 20260508110213 | 9 | 201 | 3.2 | 4.8 | 0.00 | 0.00 | 0.00 | 81 | 1002.2 |
| 20260508105712 | 9 | 240 | 0.0 | 4.8 | 0.00 | 0.00 | 0.00 | 82 | 1002.0 |
| 20260508105210 | 8 | 229 | 4.8 | 4.8 | 0.00 | 0.00 | 0.00 | 82 | 1001.9 |
| 20260508104707 | 8 | 246 | 0.0 | 6.4 | 0.00 | 0.00 | 0.00 | 84 | 1002.3 |
| 20260508104204 | 8 | 227 | 4.8 | 4.8 | 0.00 | 0.00 | 0.00 | 84 | 1002.1 |
| 20260508103701 | 8 | 220 | 4.8 | 4.8 | 0.00 | 0.00 | 0.00 | 84 | 1002.1 |
| 20260508103158 | 8 | 201 | 3.2 | 4.8 | 0.00 | 0.00 | 0.00 | 84 | 1002.1 |
| 20260508102655 | 8 | 191 | 1.6 | 3.2 | 0.00 | 0.00 | 0.00 | 84 | 1002.0 |
| 20260508102153 | 8 | 218 | 3.2 | 3.2 | 0.00 | 0.00 | 0.00 | 84 | 1001.9 |
| 20260508101650 | 8 | 206 | 3.2 | 4.8 | 0.00 | 0.00 | 0.00 | 85 | 1002.1 |
| 20260508101148 | 8 | 192 | 1.6 | 4.8 | 0.00 | 0.00 | 0.00 | 85 | 1002.0 |
| 20260508100644 | 8 | 213 | 3.2 | 4.8 | 0.00 | 0.00 | 0.00 | 86 | 1001.8 |
| 20260508100143 | 7 | 228 | 3.2 | 4.8 | 0.00 | 0.00 | 0.00 | 86 | 1002.0 |
| 20260508095639 | 7 | 157 | 0.0 | 3.2 | 0.00 | 0.00 | 0.00 | 86 | 1001.9 |
| 20260508095136 | 7 | 201 | 3.2 | 3.2 | 0.00 | 0.00 | 0.00 | 89 | 1001.9 |
| 20260508094633 | 7 | 208 | 3.2 | 3.2 | 0.00 | 0.00 | 0.00 | 88 | 1001.6 |
| 20260508094130 | 7 | 225 | 4.8 | 4.8 | 0.00 | 0.00 | 0.00 | 89 | 1001.6 |
| 20260508093627 | 6 | 185 | 1.6 | 4.8 | 0.00 | 0.00 | 0.00 | 91 | 1001.6 |
| 20260508093125 | 6 | 212 | 1.6 | 3.2 | 0.00 | 0.00 | 0.00 | 90 | 1001.6 |
| 20260508092622 | 6 | 180 | 3.2 | 4.8 | 0.00 | 0.00 | 0.00 | 93 | 1001.7 |
| 20260508092120 | 6 | 131 | 1.6 | 4.8 | 0.00 | 0.00 | 0.00 | 93 | 1001.4 |
| 20260508091617 | 5 | 177 | 3.2 | 4.8 | 0.00 | 0.00 | 0.00 | 94 | 1001.7 |
| 20260508091114 | 5 | 194 | 0.0 | 4.8 | 0.00 | 0.00 | 0.00 | 93 | 1001.5 |
| 20260508090612 | 6 | 147 | 0.0 | 4.8 | 0.00 | 0.00 | 0.00 | 92 | 1001.5 |
| 20260508090109 | 6 | 160 | 1.6 | 4.8 | 0.00 | 0.00 | 0.00 | 92 | 1001.6 |
| 20260508085605 | 6 | 140 | 0.0 | 3.2 | 0.00 | 0.00 | 0.00 | 91 | 1001.4 |
| 20260508085103 | 6 | 185 | 3.2 | 3.2 | 0.00 | 0.00 | 0.00 | 91 | 1001.6 |
| 20260508084559 | 6 | 173 | 3.2 | 4.8 | 0.00 | 0.00 | 0.00 | 91 | 1001.8 |
| 20260508084057 | 6 | 165 | 0.0 | 4.8 | 0.00 | 0.00 | 0.00 | 90 | 1001.7 |
| 20260508083553 | 6 | 169 | 3.2 | 4.8 | 0.00 | 0.00 | 0.00 | 89 | 1001.6 |
| 20260508083050 | 6 | 166 | 3.2 | 3.2 | 0.00 | 0.00 | 0.00 | 89 | 1001.7 |
| 20260508082546 | 6 | 184 | 3.2 | 3.2 | 0.00 | 0.00 | 0.00 | 90 | 1001.8 |
| 20260508082043 | 6 | 144 | 6.4 | 6.4 | 0.00 | 0.00 | 0.00 | 91 | 1001.6 |
| 20260508081541 | 6 | 184 | 4.8 | 4.8 | 0.00 | 0.00 | 0.00 | 91 | 1001.5 |
| 20260508081036 | 6 | 192 | 1.6 | 3.2 | 0.00 | 0.00 | 0.00 | 90 | 1001.4 |
| 20260508080535 | 6 | 169 | 1.6 | 3.2 | 0.00 | 0.00 | 0.00 | 90 | 1001.6 |
| 20260508080032 | 7 | 157 | 0.0 | 3.2 | 0.00 | 0.00 | 0.00 | 90 | 1001.4 |
| 20260508075528 | 6 | 180 | 4.8 | 4.8 | 0.00 | 0.00 | 0.00 | 90 | 1001.6 |
| 20260508075026 | 7 | 168 | 1.6 | 6.4 | 0.00 | 0.00 | 0.00 | 89 | 1001.3 |
| 20260508074524 | 6 | 175 | 3.2 | 3.2 | 0.00 | 0.00 | 0.00 | 90 | 1001.6 |
| 20260508074020 | 7 | 203 | 0.0 | 3.2 | 0.00 | 0.00 | 0.00 | 90 | 1001.4 |
| 20260508073517 | 7 | 144 | 4.8 | 4.8 | 0.00 | 0.00 | 0.00 | 88 | 1001.3 |
| 20260508073015 | 7 | 148 | 4.8 | 4.8 | 0.00 | 0.00 | 0.00 | 87 | 1001.7 |
| 20260508072511 | 7 | 139 | 3.2 | 4.8 | 0.00 | 0.00 | 0.00 | 87 | 1001.6 |
| 20260508072008 | 7 | 172 | 4.8 | 6.4 | 0.00 | 0.00 | 0.00 | 87 | 1001.4 |
| 20260508071506 | 7 | 185 | 0.0 | 6.4 | 0.00 | 0.00 | 0.00 | 87 | 1001.3 |
| 20260508071003 | 8 | 253 | 3.2 | 4.8 | 0.00 | 0.00 | 0.00 | 85 | 1001.5 |
| 20260508070501 | 8 | 252 | 4.8 | 4.8 | 0.00 | 0.00 | 0.00 | 85 | 1001.3 |
| 20260508065959 | 8 | 132 | 3.2 | 8.0 | 0.00 | 0.00 | 0.00 | 86 | 1001.3 |
| 20260508065456 | 8 | 151 | 1.6 | 6.4 | 0.00 | 0.00 | 0.00 | 87 | 1001.5 |
| 20260508064954 | 7 | 173 | 0.0 | 4.8 | 0.00 | 0.00 | 0.00 | 87 | 1001.3 |
| 20260508064452 | 8 | 131 | 0.0 | 3.2 | 0.00 | 0.00 | 0.00 | 87 | 1001.4 |
| 20260508063949 | 8 | 180 | 1.6 | 6.4 | 0.00 | 0.00 | 0.00 | 86 | 1001.4 |
| 20260508063446 | 8 | 180 | 3.2 | 6.4 | 0.00 | 0.00 | 0.00 | 87 | 1001.4 |
| 20260508062944 | 8 | 180 | 4.8 | 4.8 | 0.00 | 0.00 | 0.00 | 86 | 1001.3 |
| 20260508062442 | 8 | 180 | 3.2 | 4.8 | 0.00 | 0.00 | 0.00 | 85 | 1001.5 |
| 20260508061938 | 8 | 126 | 1.6 | 3.2 | 0.00 | 0.00 | 0.00 | 84 | 1001.4 |
| 20260508061436 | 8 | 240 | 0.0 | 6.4 | 0.00 | 0.00 | 0.00 | 84 | 1001.5 |
| 20260508060932 | 9 | 117 | 0.0 | 3.2 | 0.00 | 0.00 | 0.00 | 84 | 1001.5 |
| 20260508060430 | 9 | 200 | 1.6 | 3.2 | 0.00 | 0.00 | 0.00 | 83 | 1001.4 |
| 20260508055926 | 10 | 168 | 3.2 | 4.8 | 0.00 | 0.00 | 0.00 | 81 | 1001.6 |
| 20260508055422 | 10 | 165 | 0.0 | 4.8 | 0.00 | 0.00 | 0.00 | 82 | 1001.5 |
| 20260508054919 | 10 | 228 | 3.2 | 3.2 | 0.00 | 0.00 | 0.00 | 82 | 1001.6 |
| 20260508054417 | 10 | 206 | 0.0 | 3.2 | 0.00 | 0.00 | 0.00 | 81 | 1001.7 |
| 20260508053913 | 10 | 206 | 4.8 | 4.8 | 0.00 | 0.00 | 0.00 | 81 | 1001.5 |
| 20260508053410 | 11 | 190 | 3.2 | 4.8 | 0.00 | 0.00 | 0.00 | 80 | 1001.5 |
| 20260508052908 | 11 | 200 | 0.0 | 3.2 | 0.00 | 0.00 | 0.00 | 80 | 1001.7 |
| 20260508052405 | 11 | 246 | 1.6 | 3.2 | 0.00 | 0.00 | 0.00 | 81 | 1001.6 |
| 20260508051901 | 11 | 166 | 0.0 | 4.8 | 0.00 | 0.00 | 0.00 | 80 | 1001.8 |
| 20260508051357 | 11 | 184 | 3.2 | 3.2 | 0.00 | 0.00 | 0.00 | 80 | 1001.8 |
| 20260508050853 | 11 | 248 | 4.8 | 8.0 | 0.00 | 0.00 | 0.00 | 79 | 1002.0 |
| 20260508050350 | 11 | 254 | 0.0 | 6.4 | 0.00 | 0.00 | 0.00 | 79 | 1001.7 |
| 20260508045846 | 11 | 243 | 1.6 | 3.2 | 0.00 | 0.00 | 0.00 | 79 | 1001.7 |
| 20260508045344 | 11 | 248 | 4.8 | 8.0 | 0.00 | 0.00 | 0.00 | 78 | 1001.5 |
| 20260508044842 | 11 | 261 | 0.0 | 8.0 | 0.00 | 0.00 | 0.00 | 80 | 1001.6 |
| 20260508044338 | 11 | 198 | 1.6 | 6.4 | 0.00 | 0.00 | 0.00 | 79 | 1001.7 |
| 20260508043834 | 11 | 270 | 3.2 | 8.0 | 0.00 | 0.00 | 0.00 | 79 | 1001.8 |
| 20260508043331 | 11 | 216 | 3.2 | 4.8 | 0.00 | 0.00 | 0.00 | 81 | 1001.9 |
| 20260508042827 | 11 | 235 | 3.2 | 8.0 | 0.00 | 0.00 | 0.00 | 80 | 1001.9 |
| 20260508042326 | 11 | 228 | 0.0 | 4.8 | 0.00 | 0.00 | 0.00 | 82 | 1002.0 |
| 20260508041822 | 11 | 210 | 3.2 | 4.8 | 0.00 | 0.00 | 0.00 | 82 | 1002.1 |
| 20260508041319 | 11 | 221 | 3.2 | 3.2 | 0.00 | 0.00 | 0.00 | 83 | 1001.8 |
| 20260508040815 | 11 | 245 | 0.0 | 4.8 | 0.00 | 0.00 | 0.00 | 82 | 1002.1 |
| 20260508040313 | 11 | 234 | 0.0 | 4.8 | 0.00 | 0.00 | 0.00 | 82 | 1001.9 |
| 20260508035809 | 12 | 210 | 3.2 | 4.8 | 0.00 | 0.00 | 0.00 | 82 | 1002.0 |
| 20260508035307 | 12 | 246 | 1.6 | 4.8 | 0.00 | 0.00 | 0.00 | 82 | 1001.8 |
| 20260508034803 | 12 | 230 | 3.2 | 4.8 | 0.00 | 0.00 | 0.00 | 83 | 1001.8 |
| 20260508034301 | 12 | 273 | 4.8 | 4.8 | 0.00 | 0.00 | 0.00 | 83 | 1001.7 |
| 20260508033758 | 12 | 201 | 0.0 | 3.2 | 0.00 | 0.00 | 0.00 | 84 | 1001.7 |
| 20260508033256 | 12 | 245 | 3.2 | 3.2 | 0.00 | 0.00 | 0.00 | 83 | 1001.7 |
| 20260508032753 | 12 | 171 | 3.2 | 3.2 | 0.00 | 0.00 | 0.00 | 85 | 1001.6 |
| 20260508032250 | 12 | 206 | 3.2 | 3.2 | 0.00 | 0.00 | 0.00 | 84 | 1001.7 |
| 20260508031747 | 12 | 220 | 1.6 | 3.2 | 0.00 | 0.00 | 0.00 | 84 | 1001.8 |
| 20260508031243 | 12 | 195 | 0.0 | 4.8 | 0.00 | 0.00 | 0.00 | 85 | 1001.7 |
| 20260508030740 | 12 | 165 | 0.0 | 3.2 | 0.00 | 0.00 | 0.00 | 84 | 1001.9 |
| 20260508030237 | 12 | 195 | 0.0 | 3.2 | 0.00 | 0.00 | 0.00 | 84 | 1001.6 |
| 20260508025734 | 12 | 213 | 3.2 | 3.2 | 0.00 | 0.00 | 0.00 | 84 | 1001.6 |
| 20260508025231 | 12 | 180 | 0.0 | 3.2 | 0.00 | 0.00 | 0.00 | 83 | 1001.7 |
| 20260508024726 | 12 | 220 | 0.0 | 3.2 | 0.00 | 0.00 | 0.00 | 85 | 1001.7 |
| 20260508024224 | 12 | 217 | 3.2 | 3.2 | 0.00 | 0.00 | 0.00 | 84 | 1001.7 |
| 20260508023720 | 12 | 262 | 1.6 | 3.2 | 0.00 | 0.00 | 0.00 | 86 | 1001.6 |
| 20260508023218 | 12 | 175 | 0.0 | 3.2 | 0.00 | 0.00 | 0.00 | 85 | 1001.8 |
| 20260508022714 | 12 | 222 | 4.8 | 8.0 | 0.00 | 0.74 | 0.74 | 84 | 1001.8 |
| 20260508022211 | 12 | 258 | 1.6 | 3.2 | 0.00 | 0.74 | 0.74 | 85 | 1001.6 |
| 20260508021707 | 12 | 180 | 0.0 | 8.0 | 0.00 | 0.74 | 0.74 | 83 | 1001.8 |
| 20260508021203 | 12 | 278 | 1.6 | 4.8 | 0.00 | 0.74 | 0.74 | 84 | 1001.5 |
| 20260508020701 | 12 | 195 | 0.0 | 3.2 | 0.00 | 0.74 | 0.74 | 85 | 1001.7 |
| 20260508020157 | 12 | 270 | 1.6 | 3.2 | 0.00 | 0.74 | 0.74 | 84 | 1001.8 |
| 20260508015655 | 12 | 180 | 3.2 | 3.2 | 0.00 | 0.74 | 0.74 | 83 | 1001.6 |
| 20260508015152 | 12 | 194 | 0.0 | 3.2 | 0.00 | 0.74 | 0.74 | 84 | 1001.6 |
| 20260508014648 | 13 | 261 | 0.0 | 4.8 | 0.00 | 0.74 | 0.74 | 83 | 1001.5 |
| 20260508014144 | 13 | 279 | 0.0 | 4.8 | 0.00 | 0.74 | 0.74 | 82 | 1001.5 |
| 20260508013640 | 13 | 270 | 0.0 | 4.8 | 0.00 | 0.74 | 0.74 | 82 | 1001.6 |
| 20260508013137 | 13 | 312 | 0.0 | 3.2 | 0.00 | 0.74 | 0.74 | 82 | 1001.5 |
| 20260508012635 | 13 | 180 | 1.6 | 8.0 | 0.00 | 0.74 | 0.74 | 81 | 1001.4 |
| 20260508012132 | 13 | 14 | 0.0 | 3.2 | 0.00 | 0.74 | 0.74 | 81 | 1001.2 |
| 20260508011630 | 13 | 297 | 3.2 | 3.2 | 0.00 | 0.74 | 0.74 | 82 | 1001.3 |
| 20260508011127 | 13 | 279 | 3.2 | 6.4 | 0.00 | 0.74 | 0.74 | 83 | 1001.4 |
| 20260508010624 | 13 | 71 | 4.8 | 8.0 | 0.00 | 0.74 | 0.74 | 83 | 1001.3 |
| 20260508010122 | 13 | 101 | 4.8 | 8.0 | 0.00 | 0.74 | 0.74 | 83 | 1001.2 |
| 20260508005619 | 13 | 180 | 0.0 | 4.8 | 0.00 | 0.74 | 0.74 | 81 | 1001.3 |
| 20260508005115 | 13 | 78 | 4.8 | 8.0 | 0.00 | 0.74 | 0.74 | 80 | 1001.2 |
| 20260508004611 | 14 | 270 | 6.4 | 8.0 | 0.00 | 0.74 | 0.74 | 79 | 1000.9 |
| 20260508004108 | 14 | 42 | 4.8 | 8.0 | 0.00 | 0.74 | 0.74 | 79 | 1001.1 |
| 20260508003604 | 14 | 303 | 6.4 | 8.0 | 0.00 | 0.74 | 0.74 | 77 | 1001.0 |
| 20260508003102 | 14 | 323 | 6.4 | 6.4 | 0.00 | 0.74 | 0.74 | 76 | 1001.2 |
| 20260508002558 | 15 | 245 | 3.2 | 8.0 | 0.00 | 0.74 | 0.74 | 75 | 1000.8 |
| 20260508002056 | 15 | 261 | 4.8 | 6.4 | 0.00 | 0.74 | 0.74 | 75 | 1000.9 |
| 20260508001551 | 15 | 276 | 4.8 | 11.3 | 0.00 | 0.74 | 0.74 | 73 | 1000.7 |
| 20260508001047 | 15 | 263 | 6.4 | 11.3 | 0.00 | 0.74 | 0.74 | 73 | 1000.6 |
| 20260508000543 | 15 | 301 | 9.7 | 14.5 | 0.00 | 0.74 | 0.74 | 71 | 1000.5 |
| 20260508000041 | 15 | 270 | 9.7 | 14.5 | 0.00 | 0.74 | 0.74 | 70 | 1000.6 |
| 20260507235537 | 16 | 258 | 8.0 | 16.1 | 0.00 | 0.74 | 0.74 | 67 | 1000.2 |
| 20260507235035 | 16 | 256 | 11.3 | 19.3 | 0.00 | 0.74 | 0.74 | 64 | 1000.3 |
| 20260507234531 | 16 | 266 | 8.0 | 12.9 | 0.00 | 0.74 | 0.74 | 62 | 1000.2 |
| 20260507234028 | 16 | 268 | 9.7 | 17.7 | 0.00 | 0.74 | 0.74 | 60 | 999.8 |
| 20260507233524 | 17 | 268 | 8.0 | 9.7 | 0.00 | 0.74 | 0.74 | 57 | 999.9 |
| 20260507233023 | 17 | 297 | 4.8 | 9.7 | 0.00 | 0.74 | 0.74 | 56 | 999.6 |
| 20260507232519 | 17 | 276 | 1.6 | 9.7 | 0.00 | 0.74 | 0.74 | 57 | 999.4 |
| 20260507232017 | 17 | 278 | 3.2 | 6.4 | 0.00 | 0.74 | 0.74 | 57 | 999.5 |
| 20260507231513 | 17 | 270 | 4.8 | 4.8 | 0.00 | 0.74 | 0.74 | 57 | 999.4 |
| 20260507231010 | 17 | 260 | 3.2 | 4.8 | 0.00 | 0.74 | 0.74 | 56 | 999.4 |
| 20260507230507 | 17 | 312 | 3.2 | 6.4 | 0.00 | 0.74 | 0.74 | 56 | 999.2 |
| 20260507230003 | 17 | 261 | 3.2 | 8.0 | 0.00 | 0.74 | 0.74 | 55 | 999.4 |
| 20260507225458 | 17 | 261 | 4.8 | 4.8 | 0.00 | 0.74 | 0.74 | 57 | 999.1 |
| 20260507224955 | 17 | 215 | 0.0 | 3.2 | 0.00 | 0.74 | 0.74 | 58 | 999.4 |
| 20260507224450 | 17 | 174 | 0.0 | 0.0 | 0.00 | 0.74 | 0.74 | 59 | 999.3 |
| 20260507223947 | 17 | 195 | 0.0 | 3.2 | 0.00 | 0.74 | 0.74 | 61 | 999.3 |
| 20260507223443 | 17 | 188 | 0.0 | 1.6 | 0.00 | 0.74 | 0.74 | 63 | 999.3 |
| 20260507222941 | 17 | 180 | 0.0 | 0.0 | 0.00 | 0.74 | 0.74 | 56 | 999.4 |
| 20260507222438 | 17 | 195 | 0.0 | 3.2 | 0.00 | 0.74 | 0.74 | 55 | 999.4 |
| 20260507221934 | 18 | 195 | 1.6 | 3.2 | 0.00 | 0.74 | 0.74 | 56 | 999.3 |
| 20260507221431 | 18 | 215 | 0.0 | 3.2 | 0.00 | 0.74 | 0.74 | 54 | 999.4 |
| 20260507220927 | 18 | 215 | 0.0 | 3.2 | 0.00 | 0.74 | 0.74 | 54 | 999.2 |
| 20260507220425 | 18 | 262 | 0.0 | 4.8 | 0.00 | 0.74 | 0.74 | 51 | 999.2 |
| 20260507215921 | 18 | 206 | 3.2 | 4.8 | 0.00 | 0.74 | 0.74 | 54 | 999.1 |
| 20260507215418 | 18 | 245 | 3.2 | 3.2 | 0.00 | 0.74 | 0.74 | 55 | 999.2 |
| 20260507214915 | 18 | 285 | 1.6 | 8.0 | 0.00 | 0.74 | 0.74 | 51 | 999.2 |
| 20260507214413 | 18 | 240 | 0.0 | 4.8 | 0.00 | 0.74 | 0.74 | 50 | 999.0 |
| 20260507213908 | 18 | 286 | 0.0 | 3.2 | 0.00 | 0.74 | 0.74 | 51 | 999.0 |
| 20260507213405 | 18 | 187 | 0.0 | 4.8 | 0.00 | 0.74 | 0.74 | 50 | 998.9 |
| 20260507212902 | 18 | 303 | 3.2 | 6.4 | 0.00 | 0.74 | 0.74 | 48 | 998.8 |
| 20260507212358 | 18 | 121 | 4.8 | 8.0 | 0.00 | 0.74 | 0.74 | 51 | 998.9 |
| 20260507211854 | 18 | 45 | 4.8 | 4.8 | 0.00 | 0.74 | 0.74 | 55 | 999.0 |
| 20260507211351 | 18 | 90 | 1.6 | 4.8 | 0.00 | 0.74 | 0.74 | 53 | 998.9 |
| 20260507210848 | 18 | 38 | 3.2 | 3.2 | 0.00 | 0.74 | 0.74 | 53 | 999.1 |
| 20260507210345 | 18 | 200 | 0.0 | 4.8 | 0.00 | 0.74 | 0.74 | 59 | 999.1 |
| 20260507205842 | 18 | 41 | 0.0 | 6.4 | 0.00 | 0.74 | 0.74 | 49 | 999.0 |
| 20260507205338 | 18 | 278 | 0.0 | 1.6 | 0.00 | 0.74 | 0.74 | 54 | 998.9 |
| 20260507204835 | 19 | 250 | 3.2 | 6.4 | 0.00 | 0.74 | 0.74 | 52 | 999.1 |
| 20260507204332 | 19 | 10 | 3.2 | 6.4 | 0.00 | 0.74 | 0.74 | 49 | 999.0 |
| 20260507203830 | 18 | 258 | 3.2 | 8.0 | 0.00 | 0.74 | 0.74 | 48 | 998.8 |
| 20260507203328 | 20 | 279 | 0.0 | 6.4 | 0.00 | 0.74 | 0.74 | 45 | 998.8 |
| 20260507202823 | 18 | 270 | 0.0 | 6.4 | 0.00 | 0.74 | 0.74 | 44 | 999.0 |
| 20260507202320 | 18 | 1 | 6.4 | 8.0 | 0.00 | 0.74 | 0.74 | 51 | 999.0 |
| 20260507201815 | 18 | 250 | 0.0 | 4.8 | 0.00 | 0.74 | 0.74 | 48 | 998.7 |
| 20260507201311 | 17 | 0 | 0.0 | 6.4 | 0.00 | 0.74 | 0.74 | 48 | 998.8 |
| 20260507200808 | 18 | 90 | 0.0 | 8.0 | 0.00 | 0.74 | 0.74 | 50 | 998.9 |
| 20260507200304 | 18 | 267 | 4.8 | 11.3 | 0.00 | 0.74 | 0.74 | 49 | 998.7 |
| 20260507195800 | 18 | 0 | 4.8 | 8.0 | 0.00 | 0.74 | 0.74 | 58 | 999.1 |
| 20260507195257 | 18 | 261 | 3.2 | 6.4 | 0.00 | 0.74 | 0.74 | 58 | 999.2 |
| 20260507194755 | 17 | 107 | 3.2 | 4.8 | 0.00 | 0.74 | 0.74 | 58 | 999.2 |
| 20260507194250 | 17 | 245 | 3.2 | 8.0 | 0.00 | 0.74 | 0.74 | 53 | 999.2 |
| 20260507193747 | 18 | 157 | 0.0 | 6.4 | 0.00 | 0.74 | 0.74 | 59 | 999.1 |
| 20260507193244 | 17 | 15 | 0.0 | 8.0 | 0.00 | 0.74 | 0.74 | 58 | 999.0 |
| 20260507192740 | 18 | 300 | 4.8 | 8.0 | 0.00 | 0.74 | 0.74 | 56 | 998.8 |
| 20260507192237 | 18 | 29 | 3.2 | 4.8 | 0.00 | 0.74 | 0.74 | 55 | 999.0 |
| 20260507191733 | 17 | 290 | 3.2 | 6.4 | 0.00 | 0.74 | 0.74 | 56 | 999.4 |
| 20260507191230 | 17 | 298 | 6.4 | 9.7 | 0.00 | 0.74 | 0.74 | 56 | 999.2 |
| 20260507190727 | 17 | 331 | 0.0 | 8.0 | 0.00 | 0.74 | 0.74 | 59 | 999.2 |
| 20260507190225 | 17 | 305 | 4.8 | 8.0 | 0.00 | 0.74 | 0.74 | 55 | 999.2 |
| 20260507185724 | 17 | 286 | 4.8 | 6.4 | 0.00 | 0.74 | 0.74 | 59 | 999.5 |
| 20260507185220 | 18 | 301 | 9.7 | 9.7 | 0.00 | 0.74 | 0.74 | 57 | 999.2 |
| 20260507184718 | 18 | 288 | 6.4 | 6.4 | 0.00 | 0.74 | 0.74 | 55 | 999.3 |
| 20260507184215 | 18 | 257 | 9.7 | 9.7 | 0.00 | 0.74 | 0.74 | 57 | 999.2 |
| 20260507183712 | 18 | 266 | 8.0 | 9.7 | 0.00 | 0.74 | 0.74 | 57 | 999.2 |
| 20260507183209 | 18 | 307 | 0.0 | 8.0 | 0.00 | 0.74 | 0.74 | 58 | 999.2 |
| 20260507182706 | 17 | 344 | 4.8 | 6.4 | 0.00 | 0.74 | 0.74 | 62 | 999.4 |
| 20260507182201 | 17 | 292 | 3.2 | 9.7 | 0.00 | 0.74 | 0.74 | 56 | 999.3 |
| 20260507181658 | 17 | 263 | 4.8 | 8.0 | 0.00 | 0.74 | 0.74 | 60 | 999.5 |
| 20260507181154 | 17 | 292 | 3.2 | 6.4 | 0.00 | 0.74 | 0.74 | 60 | 999.3 |
| 20260507180651 | 16 | 248 | 4.8 | 6.4 | 0.00 | 0.74 | 0.74 | 63 | 999.3 |
| 20260507180148 | 17 | 33 | 8.0 | 11.3 | 0.00 | 0.74 | 0.74 | 61 | 999.6 |
| 20260507175643 | 17 | 258 | 3.2 | 8.0 | 0.00 | 0.74 | 0.74 | 62 | 999.5 |
| 20260507175141 | 18 | 77 | 3.2 | 6.4 | 0.00 | 0.74 | 0.74 | 57 | 999.8 |
| 20260507174638 | 17 | 53 | 3.2 | 6.4 | 0.00 | 0.74 | 0.74 | 63 | 999.7 |
| 20260507174136 | 18 | 315 | 3.2 | 8.0 | 0.00 | 0.74 | 0.74 | 60 | 999.8 |
| 20260507173633 | 17 | 235 | 3.2 | 11.3 | 0.00 | 0.74 | 0.74 | 63 | 999.6 |
| 20260507173130 | 17 | 247 | 6.4 | 6.4 | 0.00 | 0.74 | 0.74 | 61 | 999.6 |
| 20260507172626 | 17 | 270 | 3.2 | 6.4 | 0.00 | 0.74 | 0.74 | 64 | 999.9 |
| 20260507172124 | 16 | 17 | 4.8 | 6.4 | 0.00 | 0.74 | 0.74 | 65 | 1000.0 |
| 20260507171619 | 17 | 292 | 3.2 | 8.0 | 0.00 | 0.74 | 0.74 | 65 | 1000.0 |
| 20260507171116 | 16 | 247 | 3.2 | 9.7 | 0.00 | 0.74 | 0.74 | 67 | 1000.1 |
| 20260507170613 | 16 | 275 | 4.8 | 11.3 | 0.00 | 0.74 | 0.74 | 67 | 1000.1 |
| 20260507170110 | 17 | 311 | 8.0 | 12.9 | 0.00 | 0.74 | 0.74 | 65 | 1000.1 |
| 20260507165605 | 16 | 303 | 3.2 | 8.0 | 0.00 | 0.74 | 0.74 | 66 | 1000.1 |
| 20260507165102 | 16 | 86 | 4.8 | 6.4 | 0.00 | 0.74 | 0.74 | 71 | 1000.4 |
| 20260507164558 | 16 | 321 | 4.8 | 6.4 | 0.00 | 0.74 | 0.74 | 70 | 1000.3 |
| 20260507164055 | 15 | 48 | 6.4 | 6.4 | 0.00 | 0.74 | 0.74 | 70 | 1000.4 |
| 20260507163552 | 16 | 289 | 0.0 | 6.4 | 0.00 | 0.74 | 0.74 | 71 | 1000.6 |
| 20260507163050 | 16 | 336 | 3.2 | 8.0 | 0.00 | 0.74 | 0.74 | 69 | 1000.4 |
| 20260507162550 | 15 | 297 | 4.8 | 14.5 | 0.00 | 0.74 | 0.74 | 74 | 1000.5 |
| 20260507162048 | 15 | 68 | 3.2 | 6.4 | 0.00 | 0.74 | 0.74 | 73 | 1000.2 |
| 20260507161544 | 15 | 228 | 3.2 | 6.4 | 0.00 | 0.74 | 0.74 | 73 | 1000.5 |
| 20260507161040 | 15 | 270 | 3.2 | 8.0 | 0.00 | 0.74 | 0.74 | 71 | 1000.3 |
| 20260507160537 | 15 | 273 | 4.8 | 11.3 | 0.00 | 0.74 | 0.74 | 71 | 1000.5 |
| 20260507160033 | 15 | 304 | 8.0 | 12.9 | 0.00 | 0.74 | 0.74 | 74 | 1000.3 |
| 20260507155529 | 15 | 247 | 8.0 | 11.3 | 0.00 | 0.74 | 0.74 | 76 | 1000.4 |
| 20260507155026 | 16 | 290 | 6.4 | 6.4 | 0.00 | 0.74 | 0.74 | 74 | 1000.6 |
| 20260507154522 | 15 | 241 | 4.8 | 6.4 | 0.00 | 0.74 | 0.74 | 74 | 1000.7 |
| 20260507154020 | 13 | 270 | 4.8 | 9.7 | 0.00 | 0.74 | 0.74 | 77 | 1001.0 |
| 20260507153516 | 15 | 18 | 0.0 | 6.4 | 0.00 | 0.74 | 0.74 | 75 | 1000.9 |
| 20260507153013 | 15 | 221 | 6.4 | 8.0 | 0.00 | 0.74 | 0.74 | 74 | 1001.2 |
| 20260507152508 | 15 | 244 | 6.4 | 8.0 | 0.00 | 0.74 | 0.74 | 76 | 1001.4 |
| 20260507152005 | 15 | 272 | 6.4 | 12.9 | 0.00 | 0.74 | 0.74 | 76 | 1001.1 |
| 20260507151501 | 15 | 90 | 0.0 | 8.0 | 0.00 | 0.74 | 0.74 | 75 | 1001.2 |
| 20260507150958 | 15 | 270 | 4.8 | 8.0 | 0.00 | 0.74 | 0.74 | 79 | 1001.0 |
| 20260507150455 | 15 | 274 | 4.8 | 8.0 | 0.00 | 0.74 | 0.74 | 75 | 1001.1 |
| 20260507145951 | 15 | 300 | 8.0 | 9.7 | 0.00 | 0.74 | 0.74 | 77 | 1001.2 |
| 20260507145447 | 13 | 219 | 4.8 | 6.4 | 0.00 | 0.74 | 0.74 | 81 | 1001.3 |
| 20260507144944 | 14 | 40 | 4.8 | 6.4 | 0.00 | 0.74 | 0.74 | 82 | 1001.4 |
| 20260507144441 | 12 | 252 | 4.8 | 9.7 | 0.00 | 0.74 | 0.74 | 82 | 1001.7 |
| 20260507143938 | 13 | 290 | 8.0 | 9.7 | 0.00 | 0.74 | 0.74 | 84 | 1001.5 |
| 20260507143436 | 12 | 274 | 3.2 | 6.4 | 0.00 | 0.74 | 0.74 | 85 | 1002.1 |
| 20260507142932 | 12 | 203 | 1.6 | 6.4 | 0.00 | 0.74 | 0.74 | 87 | 1001.7 |
| 20260507142428 | 13 | 259 | 4.8 | 9.7 | 0.00 | 0.74 | 0.74 | 88 | 1001.7 |
| 20260507141925 | 13 | 266 | 4.8 | 4.8 | 0.00 | 0.74 | 0.74 | 87 | 1001.6 |
| 20260507141421 | 12 | 286 | 0.0 | 8.0 | 0.00 | 0.74 | 0.74 | 87 | 1001.5 |
| 20260507140918 | 13 | 195 | 1.6 | 9.7 | 0.00 | 0.74 | 0.74 | 87 | 1001.4 |
| 20260507140415 | 13 | 241 | 3.2 | 6.4 | 0.00 | 0.74 | 0.74 | 86 | 1001.4 |
| 20260507135913 | 13 | 320 | 0.0 | 6.4 | 0.00 | 0.74 | 0.74 | 84 | 1001.6 |
| 20260507135409 | 13 | 276 | 0.0 | 6.4 | 0.00 | 0.74 | 0.74 | 86 | 1001.4 |
| 20260507134907 | 12 | 201 | 4.8 | 6.4 | 0.00 | 0.74 | 0.74 | 87 | 1001.4 |
| 20260507134403 | 13 | 279 | 0.0 | 8.0 | 0.00 | 0.74 | 0.74 | 88 | 1001.4 |
| 20260507133859 | 12 | 261 | 6.4 | 6.4 | 0.00 | 0.74 | 0.74 | 87 | 1001.1 |
| 20260507133354 | 12 | 281 | 3.2 | 8.0 | 0.00 | 0.74 | 0.74 | 88 | 1001.4 |
| 20260507132854 | 12 | 299 | 3.2 | 4.8 | 0.00 | 0.74 | 0.74 | 89 | 1001.3 |
| 20260507132349 | 12 | 51 | 6.4 | 6.4 | 0.00 | 0.74 | 0.74 | 90 | 1001.1 |
| 20260507131847 | 12 | 264 | 1.6 | 6.4 | 0.00 | 0.74 | 0.74 | 91 | 1001.2 |
| 20260507131343 | 12 | 280 | 4.8 | 8.0 | 0.00 | 0.74 | 0.74 | 91 | 1001.4 |
| 20260507130840 | 11 | 235 | 4.8 | 6.4 | 0.00 | 0.74 | 0.74 | 92 | 1001.5 |
| 20260507130336 | 12 | 208 | 3.2 | 6.4 | 0.00 | 0.74 | 0.74 | 94 | 1001.7 |
| 20260507125831 | 12 | 260 | 3.2 | 6.4 | 0.00 | 0.74 | 0.74 | 93 | 1001.6 |
| 20260507125327 | 12 | 238 | 4.8 | 6.4 | 0.00 | 0.74 | 0.74 | 94 | 1002.0 |
| 20260507124825 | 12 | 246 | 4.8 | 6.4 | 0.00 | 0.74 | 0.74 | 94 | 1002.0 |
| 20260507124321 | 12 | 241 | 3.2 | 4.8 | 0.00 | 0.74 | 0.74 | 94 | 1002.1 |
| 20260507123820 | 12 | 255 | 3.2 | 4.8 | 0.00 | 0.74 | 0.74 | 94 | 1002.1 |
| 20260507123316 | 12 | 279 | 3.2 | 8.0 | 0.00 | 0.74 | 0.74 | 94 | 1002.1 |
| 20260507122812 | 12 | 261 | 0.0 | 6.4 | 0.00 | 0.74 | 0.74 | 95 | 1001.8 |